Location: ?nandapuram
(16.5396°N, 81.1430°E)
Time: 15:03:29
(UTC+00:00)

ATLAS 3B R/B - Pass Details

Date: 14 April 2026
Orbit: 937 x 1257 km, 63.8° (Epoch: 11 May)

Event Time Altitude Azimuth Distance (km) Brightness Sun altitude
Rises 23:51:01 0° 302° (WNW) 4,019 5.3 -7.7°
Reaches altitude 10° 23:56:24 10° 269° (W) 2,968 4.4 -6.5°
Maximum altitude 23:58:11 11° 254° (WSW) 2,858 4.3 -6.1°
Drops below altitude 10° 23:59:57 10° 239° (WSW) 2,905 4.4 -5.7°
Sets 00:05:03 0° 205° (SSW) 3,769 5.2 -4.5°
